Location: Anumalkud?ru
(16.4847°N, 80.6636°E)
Time: 11:18:02
(UTC+00:00)

SEDSat Delta rocket - Pass Details

Date: 11 April 2026
Orbit: 528 x 963 km, 31.4° (Epoch: 20 May)

Event Time Altitude Azimuth Distance (km) Brightness Sun altitude
Rises 13:07:36 0° 303° (WNW) 3,626 8.5 -4.5°
Reaches altitude 10° 13:10:23 10° 308° (NW) 2,661 7.5 -5.2°
Maximum altitude 13:16:43 54° 24° (NNE) 1,088 4.2 -6.7°
Drops below altitude 10° 13:22:31 10° 101° (E) 2,452 5.4 -8.0°
Enters shadow 13:22:37 10° 101° (E) 2,487 5.4 -8.1°
